Time,TemperatureF,DewpointF,PressureIn,WindDirection,WindDirectionDegrees,WindSpeedMPH,WindSpeedGustMPH,Humidity,HourlyPrecipIn,Conditions,Clouds,dailyrainin,SoftwareType,DateUTC
2013-02-10 00:00:00,15.8,5.1,30.30,NNW,330,5.0,9.0,62,0.00,,,0.05,VWS V14.01,2013-02-10 05:00:00,
2013-02-10 00:05:00,15.6,4.9,30.30,North,355,2.0,5.0,62,0.00,,,0.00,VWS V14.01,2013-02-10 05:05:00,
2013-02-10 00:10:00,15.5,4.8,30.31,North,5,2.0,11.0,62,0.00,,,0.00,VWS V14.01,2013-02-10 05:10:00,
2013-02-10 00:16:00,15.6,4.9,30.31,NNE,20,2.0,11.0,62,0.00,,,0.00,VWS V14.01,2013-02-10 05:16:00,
2013-02-10 00:21:00,15.4,4.7,30.30,NE,52,2.0,11.0,62,0.00,,,0.00,VWS V14.01,2013-02-10 05:21:00,
2013-02-10 00:26:00,15.4,4.7,30.31,North,355,0.0,11.0,62,0.00,,,0.00,VWS V14.01,2013-02-10 05:26:00,
2013-02-10 00:30:00,15.3,4.6,30.31,West,273,2.0,11.0,62,0.00,,,0.00,VWS V14.01,2013-02-10 05:30:00,
2013-02-10 00:31:00,15.3,4.6,30.31,NNE,22,2.0,3.0,62,0.00,,,0.00,VWS V14.01,2013-02-10 05:31:00,
2013-02-10 00:36:00,15.3,4.3,30.31,West,265,1.0,6.0,61,0.00,,,0.00,VWS V14.01,2013-02-10 05:36:00,
2013-02-10 00:41:00,15.3,4.3,30.31,NNE,23,4.0,6.0,61,0.00,,,0.00,VWS V14.01,2013-02-10 05:41:00,
2013-02-10 00:46:00,15.3,4.3,30.31,NNW,346,1.0,6.0,61,0.00,,,0.00,VWS V14.01,2013-02-10 05:46:00,
2013-02-10 00:51:00,15.3,3.9,30.31,NW,320,2.0,8.0,60,0.00,,,0.00,VWS V14.01,2013-02-10 05:51:00,
2013-02-10 00:56:00,15.3,3.5,30.31,NNE,27,0.0,8.0,59,0.00,,,0.00,VWS V14.01,2013-02-10 05:56:00,
2013-02-10 01:00:00,15.4,3.7,30.30,NE,39,0.0,8.0,59,0.00,,,0.00,VWS V14.01,2013-02-10 06:00:00,
2013-02-10 01:01:00,15.4,3.7,30.31,NE,42,0.0,2.0,59,0.00,,,0.00,VWS V14.01,2013-02-10 06:01:00,
2013-02-10 01:06:00,15.5,3.4,30.31,NNW,330,2.0,8.0,58,0.00,,,0.00,VWS V14.01,2013-02-10 06:06:00,
2013-02-10 01:11:00,15.4,3.7,30.31,North,5,0.0,8.0,59,0.00,,,0.00,VWS V14.01,2013-02-10 06:11:00,
2013-02-10 01:16:00,15.5,3.4,30.31,NNE,24,2.0,8.0,58,0.00,,,0.00,VWS V14.01,2013-02-10 06:16:00,
2013-02-10 01:21:00,15.5,3.4,30.31,East,84,5.0,9.0,58,0.00,,,0.00,VWS V14.01,2013-02-10 06:21:00,
2013-02-10 01:26:00,15.4,3.3,30.31,NNE,15,1.0,9.0,58,0.00,,,0.00,VWS V14.01,2013-02-10 06:26:00,
2013-02-10 07:08:00,15.3,3.2,30.31,NW,305,1.0,9.0,58,0.00,,,0.00,VWS V14.01,2013-02-10 12:08:00,
2013-02-10 07:13:00,4.9,-1.0,30.42,WNW,300,0.0,9.0,76,0.00,,,0.00,VWS V14.01,2013-02-10 12:13:00,
2013-02-10 07:18:00,4.8,-1.1,30.42,WNW,300,0.0,9.0,76,0.00,,,0.00,VWS V14.01,2013-02-10 12:18:00,
2013-02-10 07:23:00,5.0,-0.6,30.42,WNW,300,0.0,9.0,77,0.00,,,0.00,VWS V14.01,2013-02-10 12:23:00,
2013-02-10 07:28:00,5.0,-0.9,30.43,WNW,300,0.0,9.0,76,0.00,,,0.00,VWS V14.01,2013-02-10 12:28:00,
2013-02-10 07:30:00,5.1,-0.8,30.43,WNW,300,0.0,9.0,76,0.00,,,0.00,VWS V14.01,2013-02-10 12:30:00,
2013-02-10 07:33:00,5.3,-0.6,30.43,WNW,300,0.0,0.0,76,0.00,,,0.00,VWS V14.01,2013-02-10 12:33:00,
2013-02-10 07:38:00,5.3,-0.6,30.43,WNW,300,0.0,0.0,76,0.00,,,0.00,VWS V14.01,2013-02-10 12:38:00,
2013-02-10 07:43:00,5.4,-0.5,30.43,WNW,300,0.0,2.0,76,0.00,,,0.00,VWS V14.01,2013-02-10 12:43:00,
2013-02-10 07:48:00,5.6,-0.6,30.43,WNW,300,0.0,2.0,75,0.00,,,0.00,VWS V14.01,2013-02-10 12:48:00,
2013-02-10 07:53:00,5.9,0.0,30.43,WNW,300,0.0,2.0,76,0.00,,,0.00,VWS V14.01,2013-02-10 12:53:00,
2013-02-10 07:58:00,6.2,0.6,30.44,WNW,300,2.0,2.0,77,0.00,,,0.00,VWS V14.01,2013-02-10 12:58:00,
2013-02-10 08:00:00,6.6,1.2,30.43,WNW,300,0.0,2.0,78,0.00,,,0.00,VWS V14.01,2013-02-10 13:00:00,
2013-02-10 08:03:00,7.0,1.6,30.44,WNW,300,0.0,1.0,78,0.00,,,0.00,VWS V14.01,2013-02-10 13:03:00,
2013-02-10 08:08:00,7.7,2.0,30.44,WNW,300,0.0,2.0,77,0.00,,,0.00,VWS V14.01,2013-02-10 13:08:00,
2013-02-10 08:58:00,7.7,1.7,30.44,WNW,300,0.0,2.0,76,0.00,,,0.00,VWS V14.01,2013-02-10 13:58:00,
2013-02-10 09:00:00,21.3,3.8,30.44,North,355,0.0,2.0,46,0.00,,,0.00,VWS V14.01,2013-02-10 14:00:00,
2013-02-10 09:03:00,21.8,4.7,30.44,North,355,0.0,1.0,47,0.00,,,0.00,VWS V14.01,2013-02-10 14:03:00,
2013-02-10 09:08:00,22.6,3.0,30.44,ENE,60,2.0,6.0,42,0.00,,,0.00,VWS V14.01,2013-02-10 14:08:00,
2013-02-10 09:13:00,23.1,3.9,30.44,ENE,71,0.0,6.0,43,0.00,,,0.00,VWS V14.01,2013-02-10 14:13:00,
2013-02-10 09:18:00,23.7,3.5,30.45,NNE,20,2.0,6.0,41,0.00,,,0.00,VWS V14.01,2013-02-10 14:18:00,
2013-02-10 09:24:00,24.3,2.9,30.45,NNE,31,0.0,6.0,39,0.01,,,0.01,VWS V14.01,2013-02-10 14:24:00,
2013-02-10 09:29:00,24.9,3.5,30.45,NE,36,1.0,6.0,39,0.01,,,0.01,VWS V14.01,2013-02-10 14:29:00,
2013-02-10 09:30:00,25.1,2.5,30.45,NW,305,0.0,6.0,37,0.01,,,0.01,VWS V14.01,2013-02-10 14:30:00,
2013-02-10 09:34:00,25.3,3.3,30.45,NNE,29,0.0,1.0,38,0.01,,,0.01,VWS V14.01,2013-02-10 14:34:00,
2013-02-10 09:39:00,25.9,3.8,30.45,East,95,0.0,4.0,38,0.01,,,0.01,VWS V14.01,2013-02-10 14:39:00,
2013-02-10 09:44:00,26.8,5.2,30.45,East,95,0.0,4.0,39,0.01,,,0.01,VWS V14.01,2013-02-10 14:44:00,
2013-02-10 09:49:00,27.7,4.2,30.45,ENE,57,0.0,4.0,36,0.01,,,0.01,VWS V14.01,2013-02-10 14:49:00,
2013-02-10 09:54:00,28.3,2.9,30.45,East,79,0.0,4.0,33,0.01,,,0.01,VWS V14.01,2013-02-10 14:54:00,
2013-02-10 09:59:00,28.9,5.3,30.46,East,79,1.0,4.0,36,0.03,,,0.03,VWS V14.01,2013-02-10 14:59:00,
2013-02-10 10:00:00,29.1,4.2,30.46,East,79,0.0,4.0,34,0.03,,,0.03,VWS V14.01,2013-02-10 15:00:00,
2013-02-10 10:04:00,29.3,3.8,30.46,WNW,289,0.0,3.0,33,0.03,,,0.03,VWS V14.01,2013-02-10 15:04:00,
2013-02-10 10:09:00,29.0,1.5,30.46,NE,45,0.0,4.0,30,0.03,,,0.03,VWS V14.01,2013-02-10 15:09:00,
2013-02-10 10:14:00,29.5,1.9,30.46,NE,45,0.0,4.0,30,0.04,,,0.04,VWS V14.01,2013-02-10 15:14:00,
2013-02-10 10:19:00,29.8,2.9,30.46,NE,34,0.0,4.0,31,0.05,,,0.05,VWS V14.01,2013-02-10 15:19:00,
2013-02-10 10:24:00,30.3,4.0,30.47,NE,34,0.0,4.0,32,0.05,,,0.05,VWS V14.01,2013-02-10 15:24:00,
2013-02-10 10:30:00,30.8,3.8,30.46,East,82,3.0,4.0,31,0.05,,,0.05,VWS V14.01,2013-02-10 15:30:00,
2013-02-10 10:35:00,30.8,4.4,30.46,North,5,0.0,1.0,32,0.05,,,0.06,VWS V14.01,2013-02-10 15:35:00,
2013-02-10 10:40:00,31.2,4.8,30.46,ENE,59,4.0,4.0,32,0.06,,,0.07,VWS V14.01,2013-02-10 15:40:00,
2013-02-10 10:45:00,30.7,5.0,30.46,NE,43,2.0,4.0,33,0.06,,,0.07,VWS V14.01,2013-02-10 15:45:00,
2013-02-10 10:50:00,30.5,4.2,30.45,East,84,0.0,4.0,32,0.06,,,0.07,VWS V14.01,2013-02-10 15:50:00,
2013-02-10 10:55:00,30.2,4.6,30.45,ENE,71,0.0,4.0,33,0.07,,,0.08,VWS V14.01,2013-02-10 15:55:00,
2013-02-10 11:00:00,30.1,5.1,30.46,North,355,0.0,4.0,34,0.08,,,0.09,VWS V14.01,2013-02-10 16:00:00,
2013-02-10 11:05:00,30.1,3.8,30.46,North,360,0.0,3.0,32,0.06,,,0.09,VWS V14.01,2013-02-10 16:05:00,
2013-02-10 11:10:00,30.3,5.3,30.45,NE,42,0.0,3.0,34,0.06,,,0.09,VWS V14.01,2013-02-10 16:10:00,
2013-02-10 11:15:00,30.8,5.8,30.45,NE,42,1.0,3.0,34,0.06,,,0.09,VWS V14.01,2013-02-10 16:15:00,
2013-02-10 11:20:00,31.4,5.0,30.45,NE,51,1.0,3.0,32,0.07,,,0.10,VWS V14.01,2013-02-10 16:20:00,
2013-02-10 11:25:00,31.8,6.6,30.45,East,82,0.0,3.0,34,0.07,,,0.10,VWS V14.01,2013-02-10 16:25:00,
2013-02-10 11:30:00,32.3,5.1,30.45,North,360,1.0,4.0,31,0.07,,,0.10,VWS V14.01,2013-02-10 16:30:00,
2013-02-10 11:35:00,32.5,7.3,30.45,NNW,346,0.0,1.0,34,0.06,,,0.11,VWS V14.01,2013-02-10 16:35:00,
2013-02-10 11:40:00,32.8,8.2,30.44,NNW,346,0.0,1.0,35,0.06,,,0.11,VWS V14.01,2013-02-10 16:40:00,
2013-02-10 11:45:00,33.0,5.7,30.44,NNW,346,1.0,2.0,31,0.06,,,0.11,VWS V14.01,2013-02-10 16:45:00,
2013-02-10 11:50:00,33.2,5.8,30.44,WNW,298,1.0,2.0,31,0.06,,,0.11,VWS V14.01,2013-02-10 16:50:00,
2013-02-10 11:55:00,33.0,5.7,30.43,NNW,335,0.0,2.0,31,0.06,,,0.11,VWS V14.01,2013-02-10 16:55:00,
2013-02-10 12:00:00,33.0,5.0,30.43,North,360,0.0,2.0,30,0.07,,,0.12,VWS V14.01,2013-02-10 17:00:00,
2013-02-10 12:06:00,32.7,6.1,30.43,ENE,59,1.0,3.0,32,0.03,,,0.12,VWS V14.01,2013-02-10 17:06:00,
2013-02-10 12:11:00,32.5,3.8,30.42,ENE,59,1.0,3.0,29,0.03,,,0.12,VWS V14.01,2013-02-10 17:11:00,
2013-02-10 12:16:00,32.4,6.5,30.42,ENE,63,1.0,3.0,33,0.03,,,0.12,VWS V14.01,2013-02-10 17:16:00,
2013-02-10 12:21:00,32.6,6.7,30.42,SE,146,1.0,3.0,33,0.03,,,0.12,VWS V14.01,2013-02-10 17:21:00,
2013-02-10 12:26:00,32.7,3.2,30.42,East,92,4.0,5.0,28,0.04,,,0.13,VWS V14.01,2013-02-10 17:26:00,
2013-02-10 12:30:00,32.6,4.6,30.41,East,94,1.0,6.0,30,0.04,,,0.13,VWS V14.01,2013-02-10 17:30:00,
2013-02-10 12:31:00,32.7,4.7,30.41,NW,314,2.0,3.0,30,0.03,,,0.13,VWS V14.01,2013-02-10 17:31:00,
2013-02-10 12:36:00,33.0,5.7,30.41,ENE,73,1.0,3.0,31,0.03,,,0.13,VWS V14.01,2013-02-10 17:36:00,
2013-02-10 12:41:00,33.9,9.1,30.41,ENE,76,0.0,3.0,35,0.03,,,0.13,VWS V14.01,2013-02-10 17:41:00,
2013-02-10 12:46:00,34.6,6.4,30.41,SE,144,1.0,4.0,30,0.03,,,0.13,VWS V14.01,2013-02-10 17:46:00,
2013-02-10 12:51:00,34.3,3.0,30.41,SE,132,0.0,6.0,26,0.03,,,0.13,VWS V14.01,2013-02-10 17:51:00,
2013-02-10 12:56:00,34.2,5.3,30.40,ENE,59,0.0,6.0,29,0.04,,,0.14,VWS V14.01,2013-02-10 17:56:00,
2013-02-10 13:00:00,34.5,6.3,30.40,South,181,0.0,8.0,30,0.04,,,0.14,VWS V14.01,2013-02-10 18:00:00,
2013-02-10 13:01:00,34.6,7.1,30.40,SW,214,0.0,2.0,31,0.02,,,0.14,VWS V14.01,2013-02-10 18:01:00,
2013-02-10 13:06:00,35.0,5.2,30.40,ESE,120,1.0,2.0,28,0.03,,,0.15,VWS V14.01,2013-02-10 18:06:00,
2013-02-10 13:12:00,35.4,5.6,30.40,SSE,159,1.0,4.0,28,0.03,,,0.15,VWS V14.01,2013-02-10 18:12:00,
2013-02-10 13:17:00,35.3,7.0,30.40,SE,146,4.0,5.0,30,0.04,,,0.16,VWS V14.01,2013-02-10 18:17:00,
2013-02-10 13:22:00,35.3,6.2,30.39,SSE,162,1.0,5.0,29,0.04,,,0.16,VWS V14.01,2013-02-10 18:22:00,
2013-02-10 13:27:00,35.4,6.3,30.39,SSE,164,4.0,5.0,29,0.05,,,0.17,VWS V14.01,2013-02-10 18:27:00,
2013-02-10 13:30:00,35.3,5.5,30.39,SSE,157,1.0,5.0,28,0.05,,,0.17,VWS V14.01,2013-02-10 18:30:00,
2013-02-10 13:32:00,35.3,5.5,30.39,SSE,157,0.0,1.0,28,0.04,,,0.17,VWS V14.01,2013-02-10 18:32:00,
2013-02-10 13:37:00,35.4,5.6,30.39,SSE,157,1.0,4.0,28,0.05,,,0.18,VWS V14.01,2013-02-10 18:37:00,
2013-02-10 13:42:00,35.5,6.4,30.38,South,190,2.0,4.0,29,0.06,,,0.19,VWS V14.01,2013-02-10 18:42:00,
2013-02-10 13:47:00,35.3,3.8,30.38,SSE,156,1.0,6.0,26,0.06,,,0.19,VWS V14.01,2013-02-10 18:47:00,
2013-02-10 13:52:00,35.4,6.3,30.38,SE,146,2.0,6.0,29,0.07,,,0.20,VWS V14.01,2013-02-10 18:52:00,
2013-02-10 13:57:00,35.3,7.0,30.38,SE,145,1.0,6.0,30,0.07,,,0.20,VWS V14.01,2013-02-10 18:57:00,
2013-02-10 14:00:00,35.3,6.2,30.38,SSE,155,1.0,6.0,29,0.08,,,0.21,VWS V14.01,2013-02-10 19:00:00,
2013-02-10 14:02:00,35.3,8.4,30.38,SSE,155,2.0,5.0,32,0.07,,,0.21,VWS V14.01,2013-02-10 19:02:00,
2013-02-10 14:07:00,35.3,4.7,30.38,SSE,150,0.0,5.0,27,0.07,,,0.21,VWS V14.01,2013-02-10 19:07:00,
2013-02-10 14:12:00,35.4,4.8,30.38,South,176,0.0,5.0,27,0.07,,,0.21,VWS V14.01,2013-02-10 19:12:00,
2013-02-10 14:17:00,35.5,4.8,30.38,SE,132,1.0,5.0,27,0.07,,,0.21,VWS V14.01,2013-02-10 19:17:00,
2013-02-10 14:22:00,35.6,5.7,30.39,ESE,113,0.0,5.0,28,0.08,,,0.22,VWS V14.01,2013-02-10 19:22:00,
2013-02-10 14:27:00,35.7,5.0,30.38,South,176,1.0,5.0,27,0.08,,,0.22,VWS V14.01,2013-02-10 19:27:00,
2013-02-10 14:30:00,35.7,7.3,30.39,SSE,162,0.0,5.0,30,0.08,,,0.22,VWS V14.01,2013-02-10 19:30:00,
2013-02-10 14:32:00,35.7,5.8,30.39,SSE,162,0.0,4.0,28,0.06,,,0.23,VWS V14.01,2013-02-10 19:32:00,
2013-02-10 14:37:00,35.5,4.0,30.38,South,178,0.0,5.0,26,0.06,,,0.23,VWS V14.01,2013-02-10 19:37:00,
2013-02-10 14:42:00,35.4,4.8,30.39,SSE,165,0.0,5.0,27,0.06,,,0.23,VWS V14.01,2013-02-10 19:42:00,
2013-02-10 14:47:00,35.2,5.4,30.39,SSE,167,2.0,5.0,28,0.06,,,0.23,VWS V14.01,2013-02-10 19:47:00,
2013-02-10 14:52:00,35.0,6.0,30.40,South,183,1.0,6.0,29,0.06,,,0.23,VWS V14.01,2013-02-10 19:52:00,
2013-02-10 14:57:00,34.8,5.0,30.40,ESE,109,1.0,6.0,28,0.06,,,0.23,VWS V14.01,2013-02-10 19:57:00,
2013-02-10 15:00:00,34.7,5.7,30.39,ESE,123,1.0,6.0,29,0.06,,,0.23,VWS V14.01,2013-02-10 20:00:00,
2013-02-10 15:03:00,34.6,7.1,30.40,ESE,123,0.0,2.0,31,0.02,,,0.23,VWS V14.01,2013-02-10 20:03:00,
2013-02-10 15:08:00,34.4,5.4,30.39,ESE,123,0.0,2.0,29,0.02,,,0.23,VWS V14.01,2013-02-10 20:08:00,
2013-02-10 15:13:00,34.4,3.9,30.39,ESE,123,0.0,2.0,27,0.02,,,0.23,VWS V14.01,2013-02-10 20:13:00,
2013-02-10 15:18:00,34.6,5.6,30.39,ESE,123,0.0,2.0,29,0.02,,,0.23,VWS V14.01,2013-02-10 20:18:00,
2013-02-10 15:23:00,34.8,9.3,30.38,ESE,123,0.0,2.0,34,0.02,,,0.23,VWS V14.01,2013-02-10 20:23:00,
2013-02-10 15:28:00,34.9,1.8,30.38,West,276,0.0,3.0,24,0.03,,,0.24,VWS V14.01,2013-02-10 20:28:00,
2013-02-10 15:30:00,35.0,8.1,30.38,West,276,0.0,3.0,32,0.03,,,0.24,VWS V14.01,2013-02-10 20:30:00,
2013-02-10 15:33:00,35.0,6.7,30.37,West,276,0.0,0.0,30,0.02,,,0.24,VWS V14.01,2013-02-10 20:33:00,
2013-02-10 15:58:00,34.4,8.3,30.36,West,276,0.0,0.0,33,0.03,,,0.25,VWS V14.01,2013-02-10 20:58:00,
2013-02-10 16:03:00,33.9,9.1,30.36,West,276,0.0,1.0,35,0.02,,,0.25,VWS V14.01,2013-02-10 21:03:00,
2013-02-10 16:08:00,33.3,2.9,30.36,West,276,0.0,1.0,27,0.02,,,0.25,VWS V14.01,2013-02-10 21:08:00,
2013-02-10 16:13:00,32.5,11.4,30.36,West,276,0.0,1.0,41,0.02,,,0.25,VWS V14.01,2013-02-10 21:13:00,
2013-02-10 16:18:00,31.7,10.7,30.36,West,276,0.0,1.0,41,0.02,,,0.25,VWS V14.01,2013-02-10 21:18:00,
2013-02-10 16:23:00,31.3,10.3,30.36,West,276,0.0,1.0,41,0.02,,,0.25,VWS V14.01,2013-02-10 21:23:00,
2013-02-10 16:28:00,30.9,10.5,30.37,West,276,0.0,1.0,42,0.02,,,0.25,VWS V14.01,2013-02-10 21:28:00,
2013-02-10 16:33:00,30.5,13.2,30.37,West,276,0.0,1.0,48,0.01,,,0.25,VWS V14.01,2013-02-10 21:33:00,
2013-02-10 16:38:00,30.2,12.9,30.37,West,276,0.0,1.0,48,0.01,,,0.25,VWS V14.01,2013-02-10 21:38:00,
2013-02-10 16:44:00,29.9,14.0,30.37,West,276,0.0,1.0,51,0.01,,,0.25,VWS V14.01,2013-02-10 21:44:00,
2013-02-10 16:49:00,29.4,14.8,30.37,West,276,0.0,1.0,54,0.01,,,0.25,VWS V14.01,2013-02-10 21:49:00,
2013-02-10 16:54:00,28.7,14.2,30.37,West,276,0.0,1.0,54,0.01,,,0.25,VWS V14.01,2013-02-10 21:54:00,
2013-02-10 16:59:00,28.3,14.2,30.37,West,276,0.0,1.0,55,0.01,,,0.25,VWS V14.01,2013-02-10 21:59:00,
2013-02-10 17:04:00,28.0,13.9,30.37,West,276,0.0,1.0,55,0.00,,,0.25,VWS V14.01,2013-02-10 22:04:00,
2013-02-10 17:09:00,27.4,14.6,30.37,West,276,1.0,2.0,58,0.00,,,0.25,VWS V14.01,2013-02-10 22:09:00,
2013-02-10 17:14:00,26.5,14.5,30.37,West,276,1.0,2.0,60,0.00,,,0.25,VWS V14.01,2013-02-10 22:14:00,
2013-02-10 17:19:00,25.8,14.6,30.37,West,276,0.0,2.0,62,0.00,,,0.25,VWS V14.01,2013-02-10 22:19:00,
2013-02-10 17:24:00,25.5,14.3,30.37,West,276,0.0,2.0,62,0.00,,,0.25,VWS V14.01,2013-02-10 22:24:00,
2013-02-10 17:29:00,25.2,14.4,30.37,West,276,0.0,2.0,63,0.00,,,0.25,VWS V14.01,2013-02-10 22:29:00,
2013-02-10 17:34:00,24.9,14.5,30.37,West,276,0.0,0.0,64,0.00,,,0.25,VWS V14.01,2013-02-10 22:34:00,
2013-02-10 17:39:00,24.4,14.0,30.37,West,276,0.0,1.0,64,0.00,,,0.25,VWS V14.01,2013-02-10 22:39:00,
2013-02-10 17:44:00,24.3,13.5,30.37,West,276,0.0,2.0,63,0.00,,,0.25,VWS V14.01,2013-02-10 22:44:00,
2013-02-10 17:49:00,23.9,13.9,30.37,West,276,0.0,2.0,65,0.00,,,0.25,VWS V14.01,2013-02-10 22:49:00,
2013-02-10 17:54:00,23.4,13.7,30.37,West,276,0.0,2.0,66,0.00,,,0.25,VWS V14.01,2013-02-10 22:54:00,
2013-02-10 17:59:00,22.9,14.3,30.37,West,276,0.0,2.0,69,0.00,,,0.25,VWS V14.01,2013-02-10 22:59:00,
2013-02-10 18:04:00,22.5,14.2,30.36,West,276,0.0,0.0,70,0.00,,,0.25,VWS V14.01,2013-02-10 23:04:00,
2013-02-10 18:09:00,22.2,13.9,30.37,West,276,0.0,2.0,70,0.00,,,0.25,VWS V14.01,2013-02-10 23:09:00,
2013-02-10 18:14:00,21.9,14.3,30.37,West,276,0.0,2.0,72,0.00,,,0.25,VWS V14.01,2013-02-10 23:14:00,
2013-02-10 18:20:00,21.6,14.3,30.37,West,276,0.0,2.0,73,0.00,,,0.25,VWS V14.01,2013-02-10 23:20:00,
2013-02-10 18:25:00,21.3,13.7,30.38,West,276,0.0,2.0,72,0.00,,,0.25,VWS V14.01,2013-02-10 23:25:00,
2013-02-10 18:30:00,21.1,13.5,30.38,West,276,0.0,2.0,72,0.00,,,0.25,VWS V14.01,2013-02-10 23:30:00,
2013-02-10 18:35:00,20.8,13.5,30.38,West,276,0.0,0.0,73,0.00,,,0.25,VWS V14.01,2013-02-10 23:35:00,
2013-02-10 18:40:00,20.5,13.9,30.38,West,276,1.0,1.0,75,0.00,,,0.25,VWS V14.01,2013-02-10 23:40:00,
2013-02-10 18:45:00,20.0,13.4,30.38,West,276,1.0,1.0,75,0.00,,,0.25,VWS V14.01,2013-02-10 23:45:00,
2013-02-10 18:50:00,19.5,13.5,30.37,West,276,1.0,2.0,77,0.00,,,0.25,VWS V14.01,2013-02-10 23:50:00,
2013-02-10 18:55:00,19.1,13.4,30.37,West,276,1.0,2.0,78,0.00,,,0.25,VWS V14.01,2013-02-10 23:55:00,
2013-02-10 19:00:00,18.9,12.9,30.37,West,276,0.0,2.0,77,0.00,,,0.25,VWS V14.01,2013-02-11 00:00:00,
2013-02-10 19:05:00,18.8,13.1,30.37,West,276,0.0,0.0,78,0.00,,,0.25,VWS V14.01,2013-02-11 00:05:00,
2013-02-10 19:10:00,18.6,13.5,30.37,West,276,1.0,2.0,80,0.00,,,0.25,VWS V14.01,2013-02-11 00:10:00,
2013-02-10 19:16:00,18.3,13.2,30.37,West,276,1.0,2.0,80,0.00,,,0.25,VWS V14.01,2013-02-11 00:16:00,
2013-02-10 19:21:00,18.0,12.6,30.37,West,276,0.0,2.0,79,0.00,,,0.25,VWS V14.01,2013-02-11 00:21:00,
2013-02-10 19:26:00,17.9,12.5,30.37,West,276,0.0,2.0,79,0.00,,,0.25,VWS V14.01,2013-02-11 00:26:00,
2013-02-10 19:31:00,17.7,12.9,30.38,West,276,0.0,0.0,81,0.00,,,0.25,VWS V14.01,2013-02-11 00:31:00,
2013-02-10 19:43:00,17.1,12.0,30.37,West,276,0.0,0.0,80,0.00,,,0.25,VWS V14.01,2013-02-11 00:43:00,
2013-02-10 19:48:00,16.9,11.8,30.37,West,276,0.0,0.0,80,0.00,,,0.25,VWS V14.01,2013-02-11 00:48:00,
2013-02-10 19:53:00,16.7,12.2,30.37,West,276,1.0,1.0,82,0.00,,,0.25,VWS V14.01,2013-02-11 00:53:00,
2013-02-10 19:58:00,16.4,11.9,30.37,West,276,0.0,1.0,82,0.00,,,0.25,VWS V14.01,2013-02-11 00:58:00,
2013-02-10 20:03:00,16.2,12.0,30.38,West,276,0.0,0.0,83,0.00,,,0.25,VWS V14.01,2013-02-11 01:03:00,
2013-02-10 20:08:00,16.1,11.9,30.38,West,276,0.0,0.0,83,0.00,,,0.25,VWS V14.01,2013-02-11 01:08:00,
2013-02-10 20:13:00,15.8,11.6,30.38,West,276,1.0,2.0,83,0.00,,,0.25,VWS V14.01,2013-02-11 01:13:00,
2013-02-10 20:18:00,15.6,11.1,30.38,West,276,0.0,2.0,82,0.00,,,0.25,VWS V14.01,2013-02-11 01:18:00,
2013-02-10 20:23:00,15.6,11.1,30.38,West,276,0.0,2.0,82,0.00,,,0.25,VWS V14.01,2013-02-11 01:23:00,
2013-02-10 20:28:00,15.4,11.2,30.38,West,276,0.0,2.0,83,0.00,,,0.25,VWS V14.01,2013-02-11 01:28:00,
2013-02-10 20:34:00,15.1,11.1,30.38,West,276,0.0,2.0,84,0.00,,,0.25,VWS V14.01,2013-02-11 01:34:00,
2013-02-10 20:39:00,14.9,10.7,30.38,West,276,2.0,2.0,83,0.00,,,0.25,VWS V14.01,2013-02-11 01:39:00,
2013-02-10 20:44:00,14.8,10.6,30.38,West,276,0.0,2.0,83,0.00,,,0.25,VWS V14.01,2013-02-11 01:44:00,
2013-02-10 20:49:00,14.6,10.7,30.38,West,276,2.0,2.0,84,0.00,,,0.25,VWS V14.01,2013-02-11 01:49:00,
2013-02-10 20:54:00,14.5,10.6,30.37,West,276,2.0,3.0,84,0.00,,,0.25,VWS V14.01,2013-02-11 01:54:00,
2013-02-10 20:59:00,14.4,10.5,30.37,West,276,0.0,3.0,84,0.00,,,0.25,VWS V14.01,2013-02-11 01:59:00,
2013-02-10 21:04:00,14.2,10.3,30.37,West,276,2.0,3.0,84,0.00,,,0.25,VWS V14.01,2013-02-11 02:04:00,
2013-02-10 21:09:00,14.0,10.3,30.36,West,277,0.0,3.0,85,0.00,,,0.25,VWS V14.01,2013-02-11 02:09:00,
2013-02-10 21:14:00,14.0,10.1,30.36,West,277,2.0,3.0,84,0.00,,,0.25,VWS V14.01,2013-02-11 02:14:00,
2013-02-10 21:19:00,14.0,10.3,30.36,West,277,3.0,3.0,85,0.00,,,0.25,VWS V14.01,2013-02-11 02:19:00,
2013-02-10 21:25:00,13.9,10.0,30.36,West,277,0.0,3.0,84,0.00,,,0.25,VWS V14.01,2013-02-11 02:25:00,
2013-02-10 21:30:00,13.9,10.0,30.36,West,277,2.0,3.0,84,0.00,,,0.25,VWS V14.01,2013-02-11 02:30:00,
2013-02-10 21:35:00,13.6,9.7,30.36,West,277,0.0,2.0,84,0.00,,,0.25,VWS V14.01,2013-02-11 02:35:00,
2013-02-10 21:40:00,13.5,9.8,30.36,West,277,0.0,2.0,85,0.00,,,0.25,VWS V14.01,2013-02-11 02:40:00,
2013-02-10 21:45:00,13.6,9.7,30.36,West,277,0.0,2.0,84,0.00,,,0.25,VWS V14.01,2013-02-11 02:45:00,
2013-02-10 21:50:00,13.6,9.7,30.35,West,277,2.0,3.0,84,0.00,,,0.25,VWS V14.01,2013-02-11 02:50:00,
2013-02-10 21:55:00,13.6,9.7,30.36,West,277,0.0,3.0,84,0.00,,,0.25,VWS V14.01,2013-02-11 02:55:00,
2013-02-10 22:00:00,13.5,9.6,30.36,West,277,0.0,3.0,84,0.00,,,0.25,VWS V14.01,2013-02-11 03:00:00,
2013-02-10 22:05:00,13.3,9.6,30.36,West,277,2.0,2.0,85,0.00,,,0.25,VWS V14.01,2013-02-11 03:05:00,
2013-02-10 22:10:00,13.4,9.7,30.36,West,277,2.0,2.0,85,0.00,,,0.25,VWS V14.01,2013-02-11 03:10:00,
2013-02-10 22:16:00,13.5,9.8,30.36,West,277,1.0,3.0,85,0.00,,,0.25,VWS V14.01,2013-02-11 03:16:00,
2013-02-10 22:21:00,13.5,9.8,30.36,West,277,0.0,3.0,85,0.00,,,0.25,VWS V14.01,2013-02-11 03:21:00,
2013-02-10 22:26:00,13.4,10.0,30.36,West,277,2.0,3.0,86,0.00,,,0.25,VWS V14.01,2013-02-11 03:26:00,
2013-02-10 22:31:00,13.5,10.1,30.36,West,277,0.0,1.0,86,0.00,,,0.25,VWS V14.01,2013-02-11 03:31:00,
2013-02-10 22:36:00,13.6,9.9,30.36,West,277,0.0,3.0,85,0.00,,,0.25,VWS V14.01,2013-02-11 03:36:00,
2013-02-10 22:41:00,13.7,10.0,30.36,West,277,2.0,3.0,85,0.00,,,0.25,VWS V14.01,2013-02-11 03:41:00,
2013-02-10 22:46:00,13.7,10.3,30.35,West,277,0.0,3.0,86,0.00,,,0.25,VWS V14.01,2013-02-11 03:46:00,
2013-02-10 22:51:00,13.8,10.4,30.35,West,277,0.0,3.0,86,0.00,,,0.25,VWS V14.01,2013-02-11 03:51:00,
2013-02-10 22:56:00,14.1,10.7,30.35,West,277,1.0,3.0,86,0.00,,,0.25,VWS V14.01,2013-02-11 03:56:00,
2013-02-10 23:01:00,14.4,11.0,30.35,West,277,0.0,2.0,86,0.00,,,0.25,VWS V14.01,2013-02-11 04:01:00,
2013-02-10 23:07:00,14.7,11.0,30.34,West,277,0.0,2.0,85,0.00,,,0.25,VWS V14.01,2013-02-11 04:07:00,
2013-02-10 23:12:00,15.3,11.6,30.34,West,277,1.0,2.0,85,0.00,,,0.25,VWS V14.01,2013-02-11 04:12:00,
2013-02-10 23:17:00,15.8,11.6,30.34,West,277,0.0,2.0,83,0.00,,,0.25,VWS V14.01,2013-02-11 04:17:00,
2013-02-10 23:22:00,16.4,11.9,30.34,West,277,2.0,3.0,82,0.00,,,0.25,VWS V14.01,2013-02-11 04:22:00,
2013-02-10 23:27:00,16.8,12.0,30.34,West,277,2.0,3.0,81,0.00,,,0.25,VWS V14.01,2013-02-11 04:27:00,
2013-02-10 23:32:00,16.8,12.3,30.34,West,277,1.0,2.0,82,0.00,,,0.25,VWS V14.01,2013-02-11 04:32:00,
2013-02-10 23:37:00,16.9,12.1,30.34,West,277,0.0,2.0,81,0.00,,,0.25,VWS V14.01,2013-02-11 04:37:00,
2013-02-10 23:42:00,17.1,12.3,30.34,West,277,1.0,2.0,81,0.00,,,0.25,VWS V14.01,2013-02-11 04:42:00,
2013-02-10 23:47:00,17.1,12.3,30.35,West,277,0.0,2.0,81,0.00,,,0.25,VWS V14.01,2013-02-11 04:47:00,
2013-02-10 23:52:00,17.3,12.5,30.34,West,277,0.0,2.0,81,0.00,,,0.25,VWS V14.01,2013-02-11 04:52:00,
2013-02-10 23:57:00,17.5,12.4,30.34,West,277,0.0,2.0,80,0.00,,,0.25,VWS V14.01,2013-02-11 04:57:00,